Terminal Aerodrome Forecast
Issued by NWS Green Bay, WI

Home | Current Version | Previous Version | Graphics & Text | Print | Product List | Glossary On
Versions: 1 2 3 4 5 6 7 8 9 10 11 12 13 14 15 16 17 18 19 20 21 22 23 24 25 26 27 28 29 30 31 32 33 34 35 36 37 38 39 40 41 42 43 44 45 46 47 48 49 50
000
FTUS43 KGRB 241200 AAA
TAFGRB
TAF AMD
KGRB 241247Z 2413/2512 29007KT 6SM BR SCT006 OVC015
      TEMPO 2413/2415 5SM -DZ BR BKN005
     FM241500 31009KT 2SM -RA BR OVC008
     FM241800 31010G18KT 4SM -RA OVC009
     FM242100 31012G20KT 2SM -RASN OVC009
     FM242300 31012G16KT 1/2SM SN OVC006
     FM250600 30010KT 3SM -SN BR BKN012=

USA.gov is the U.S. government's official web portal to all federal, state and local government web resources and services.